FW6908 Weather Reports


Display with metric or nautical units.
time (UTC)temp
F
wind
direction
speed
MPH
gust
MPH
rain 1hr
in
rain 24hr
in
rain mn
in
humidity
%
barometer
mb
20260906185505 85 32 5.0 11.0 0.00 0.00 0.00 44 1019.8
20260906185004 85 82 6.0 12.0 0.00 0.00 0.00 45 1019.7
20260906184504 85 65 6.0 12.0 0.00 0.00 0.00 45 1019.6
20260906184003 85 105 6.0 12.0 0.00 0.00 0.00 45 1019.7
20260906183503 85 59 7.0 12.0 0.00 0.00 0.00 45 1019.6
20260906183006 85 46 8.0 13.0 0.00 0.00 0.00 45 1019.6
20260906182502 85 89 4.0 9.0 0.00 0.00 0.00 45 1019.5
20260906182001 86 51 3.0 8.0 0.00 0.00 0.00 45 1019.4
20260906181502 86 107 1.0 6.0 0.00 0.00 0.00 45 1019.4
20260906181102 86 79 2.0 6.0 0.00 0.00 0.00 45 1019.5
20260906180600 86 97 2.0 7.0 0.00 0.00 0.00 45 1019.3
20260906180113 86 81 2.0 9.0 0.00 0.00 0.00 45 1019.3
20260906175602 86 62 3.0 8.0 0.00 0.00 0.00 44 1019.2
20260906175057 86 35 4.0 10.0 0.00 0.00 0.00 44 1019.1
20260906174557 87 76 5.0 10.0 0.00 0.00 0.00 43 1019.1
20260906174057 87 63 4.0 10.0 0.00 0.00 0.00 43 1019.0
20260906173559 87 70 4.0 10.0 0.00 0.00 0.00 42 1019.0
20260906173107 88 84 3.0 10.0 0.00 0.00 0.00 42 1018.9
20260906172556 88 51 5.0 12.0 0.00 0.00 0.00 41 1018.8
20260906172059 89 56 6.0 11.0 0.00 0.00 0.00 39 1018.7
20260906171559 89 44 6.0 13.0 0.00 0.00 0.00 38 1018.5
20260906171055 90 71 6.0 12.0 0.00 0.00 0.00 37 1018.6
20260906170559 90 63 6.0 12.0 0.00 0.00 0.00 36 1018.5
20260906170119 90 40 7.0 13.0 0.00 0.00 0.00 35 1018.5
20260906165557 91 56 7.0 13.0 0.00 0.00 0.00 35 1018.5
20260906165054 91 78 7.0 14.0 0.00 0.00 0.00 34 1018.4
20260906164558 91 88 9.0 13.0 0.00 0.00 0.00 33 1018.3
20260906164056 91 101 8.0 12.0 0.00 0.00 0.00 33 1018.4
20260906163554 92 58 7.0 15.0 0.00 0.00 0.00 33 1018.4
20260906163054 92 109 9.0 14.0 0.00 0.00 0.00 33 1018.3
20260906162554 92 88 4.0 11.0 0.00 0.00 0.00 33 1018.4
20260906162053 92 115 4.0 11.0 0.00 0.00 0.00 33 1018.4
20260906161553 93 88 6.0 9.0 0.00 0.00 0.00 33 1018.4
20260906161053 93 74 4.0 9.0 0.00 0.00 0.00 33 1018.4
20260906160553 93 101 3.0 9.0 0.00 0.00 0.00 33 1018.3
20260906160053 93 146 5.0 10.0 0.00 0.00 0.00 33 1018.3
20260906155552 94 92 3.0 10.0 0.00 0.00 0.00 32 1018.2
20260906155052 93 103 3.0 8.0 0.00 0.00 0.00 32 1018.3
20260906154552 94 137 2.0 6.0 0.00 0.00 0.00 32 1018.3
20260906154052 94 157 2.0 6.0 0.00 0.00 0.00 34 1018.2
20260906153551 95 333 1.0 4.0 0.00 0.00 0.00 33 1018.2
20260906153051 94 355 1.0 6.0 0.00 0.00 0.00 34 1018.2
20260906152551 93 296 2.0 7.0 0.00 0.00 0.00 35 1018.1
20260906152050 93 257 3.0 8.0 0.00 0.00 0.00 34 1018.0
20260906151602 93 202 2.0 7.0 0.00 0.00 0.00 34 1018.0
20260906151049 93 196 4.0 7.0 0.00 0.00 0.00 35 1018.0
20260906150548 94 198 4.0 10.0 0.00 0.00 0.00 34 1018.0
20260906150054 95 258 6.0 10.0 0.00 0.00 0.00 33 1018.0
20260906145546 96 67 1.0 8.0 0.00 0.00 0.00 29 1017.9
20260906145046 94 355 2.0 7.0 0.00 0.00 0.00 32 1018.0
20260906144546 94 188 4.0 7.0 0.00 0.00 0.00 33 1017.9
20260906144045 94 207 0.0 7.0 0.00 0.00 0.00 33 1018.0
20260906143544 94 205 3.0 6.0 0.00 0.00 0.00 33 1017.9
20260906143056 95 292 3.0 6.0 0.00 0.00 0.00 31 1017.9
20260906142543 94 233 0.0 9.0 0.00 0.00 0.00 33 1017.9
20260906142042 95 240 4.0 9.0 0.00 0.00 0.00 32 1017.9
20260906141542 94 211 1.0 7.0 0.00 0.00 0.00 32 1017.9
20260906141041 96 175 3.0 9.0 0.00 0.00 0.00 30 1017.9
20260906140539 96 121 2.0 9.0 0.00 0.00 0.00 29 1017.8
20260906140047 96 85 1.0 12.0 0.00 0.00 0.00 30 1017.9
20260906135539 96 127 7.0 15.0 0.00 0.00 0.00 30 1017.9
20260906135040 96 70 5.0 17.0 0.00 0.00 0.00 29 1017.8
20260906134550 96 88 10.0 17.0 0.00 0.00 0.00 29 1017.9
20260906134037 96 142 2.0 12.0 0.00 0.00 0.00 29 1017.9
20260906133539 97 100 5.0 14.0 0.00 0.00 0.00 29 1018.0
20260906133034 97 69 8.0 16.0 0.00 0.00 0.00 29 1017.8
20260906132535 97 54 8.0 16.0 0.00 0.00 0.00 28 1017.8
20260906132032 97 42 6.0 14.0 0.00 0.00 0.00 29 1017.8
20260906131531 97 56 5.0 16.0 0.00 0.00 0.00 29 1017.8
20260906131030 97 92 10.0 17.0 0.00 0.00 0.00 29 1017.8
20260906130528 97 63 11.0 17.0 0.00 0.00 0.00 28 1017.9
20260906130030 97 51 9.0 17.0 0.00 0.00 0.00 28 1017.9
20260906125525 97 65 10.0 16.0 0.00 0.00 0.00 28 1018.0
20260906125028 97 119 5.0 16.0 0.00 0.00 0.00 28 1018.0
20260906124537 97 106 9.0 15.0 0.00 0.00 0.00 28 1018.1
20260906124022 98 47 3.0 16.0 0.00 0.00 0.00 27 1018.1
20260906123521 97 42 9.0 16.0 0.00 0.00 0.00 27 1018.1
20260906123041 97 53 9.0 17.0 0.00 0.00 0.00 26 1017.9
20260906122521 97 49 11.0 17.0 0.00 0.00 0.00 26 1018.1
20260906122022 97 94 10.0 16.0 0.00 0.00 0.00 27 1018.0
20260906121520 97 88 7.0 18.0 0.00 0.00 0.00 27 1017.9
20260906121018 97 105 11.0 18.0 0.00 0.00 0.00 27 1018.1
20260906120518 97 63 6.0 11.0 0.00 0.00 0.00 27 1018.2
20260906120017 97 109 2.0 14.0 0.00 0.00 0.00 27 1018.1
20260906115516 98 69 9.0 14.0 0.00 0.00 0.00 27 1018.3
20260906115015 97 71 6.0 16.0 0.00 0.00 0.00 27 1018.4
20260906114514 97 72 4.0 16.0 0.00 0.00 0.00 27 1018.4
20260906114014 97 62 7.0 14.0 0.00 0.00 0.00 27 1018.3
20260906113513 96 68 7.0 16.0 0.00 0.00 0.00 28 1018.3
20260906113015 96 119 4.0 11.0 0.00 0.00 0.00 27 1018.3
20260906112510 97 126 5.0 13.0 0.00 0.00 0.00 27 1018.3
20260906112009 97 57 9.0 13.0 0.00 0.00 0.00 27 1018.4
20260906111517 96 84 4.0 13.0 0.00 0.00 0.00 28 1018.3
20260906111006 97 348 6.0 13.0 0.00 0.00 0.00 28 1018.3
20260906110505 96 81 3.0 15.0 0.00 0.00 0.00 28 1018.2
20260906110004 96 74 7.0 15.0 0.00 0.00 0.00 28 1018.2
20260906105504 96 107 3.0 14.0 0.00 0.00 0.00 29 1018.2
20260906105003 96 91 9.0 15.0 0.00 0.00 0.00 28 1018.2
20260906104501 96 132 7.0 15.0 0.00 0.00 0.00 28 1018.2
20260906104100 96 105 5.0 12.0 0.00 0.00 0.00 28 1018.2
20260906103558 96 49 5.0 11.0 0.00 0.00 0.00 28 1018.2
20260906103058 95 97 8.0 11.0 0.00 0.00 0.00 28 1018.3
20260906102600 95 125 5.0 13.0 0.00 0.00 0.00 28 1018.3
20260906102056 95 64 3.0 17.0 0.00 0.00 0.00 28 1018.3
20260906101556 96 101 8.0 17.0 0.00 0.00 0.00 27 1018.4
20260906101054 95 128 3.0 16.0 0.00 0.00 0.00 29 1018.3
20260906100556 95 34 9.0 16.0 0.00 0.00 0.00 28 1018.3
20260906100053 95 112 8.0 14.0 0.00 0.00 0.00 28 1018.2
20260906095550 95 105 8.0 12.0 0.00 0.00 0.00 28 1018.3
20260906095048 94 97 1.0 5.0 0.00 0.00 0.00 29 1018.3
20260906094556 94 86 1.0 5.0 0.00 0.00 0.00 30 1018.3
20260906094045 93 171 2.0 7.0 0.00 0.00 0.00 30 1018.2
20260906093545 93 277 4.0 7.0 0.00 0.00 0.00 30 1018.3
20260906093047 93 204 2.0 7.0 0.00 0.00 0.00 31 1018.4
20260906092542 92 36 3.0 6.0 0.00 0.00 0.00 31 1018.4
20260906092041 92 275 3.0 8.0 0.00 0.00 0.00 31 1018.5
20260906091556 92 272 5.0 8.0 0.00 0.00 0.00 31 1018.5
20260906091042 93 253 2.0 5.0 0.00 0.00 0.00 30 1018.4
20260906090539 92 288 1.0 3.0 0.00 0.00 0.00 31 1018.5
20260906090037 92 267 1.0 5.0 0.00 0.00 0.00 31 1018.6
20260906085536 91 298 2.0 5.0 0.00 0.00 0.00 32 1018.7
20260906085034 90 344 3.0 7.0 0.00 0.00 0.00 32 1018.7
20260906084533 90 246 3.0 7.0 0.00 0.00 0.00 32 1018.8
20260906084031 90 322 1.0 7.0 0.00 0.00 0.00 32 1018.9
20260906083531 90 261 2.0 4.0 0.00 0.00 0.00 32 1018.8
20260906083034 90 248 2.0 4.0 0.00 0.00 0.00 32 1018.8
20260906082527 89 251 1.0 4.0 0.00 0.00 0.00 33 1018.8
20260906082027 89 233 2.0 5.0 0.00 0.00 0.00 33 1018.9
20260906081526 90 264 2.0 7.0 0.00 0.00 0.00 33 1018.9
20260906081025 89 267 2.0 7.0 0.00 0.00 0.00 33 1018.9
20260906080524 89 274 5.0 7.0 0.00 0.00 0.00 33 1019.0
20260906080030 89 250 5.0 7.0 0.00 0.00 0.00 33 1019.0
20260906075524 89 262 3.0 8.0 0.00 0.00 0.00 33 1019.0
20260906075021 88 189 2.0 8.0 0.00 0.00 0.00 34 1019.0
20260906074520 88 248 4.0 8.0 0.00 0.00 0.00 34 1018.9
20260906074019 87 267 4.0 8.0 0.00 0.00 0.00 34 1018.8
20260906073517 87 262 6.0 8.0 0.00 0.00 0.00 34 1018.8
20260906073018 87 238 4.0 7.0 0.00 0.00 0.00 35 1018.7
20260906072515 87 209 3.0 7.0 0.00 0.00 0.00 35 1018.7
20260906072012 86 255 4.0 7.0 0.00 0.00 0.00 36 1018.7
20260906071511 86 263 4.0 5.0 0.00 0.00 0.00 36 1018.6
20260906071013 85 257 3.0 6.0 0.00 0.00 0.00 36 1018.6
20260906070508 85 259 2.0 6.0 0.00 0.00 0.00 37 1018.6
20260906070008 85 244 2.0 4.0 0.00 0.00 0.00 37 1018.5
20260906065506 85 203 0.0 3.0 0.00 0.00 0.00 37 1018.5
20260906065004 84 265 1.0 3.0 0.00 0.00 0.00 38 1018.4
20260906064502 84 284 1.0 3.0 0.00 0.00 0.00 38 1018.4
20260906064000 84 326 1.0 3.0 0.00 0.00 0.00 38 1018.4
20260906063559 83 43 0.0 2.0 0.00 0.00 0.00 39 1018.3
20260906063101 83 315 0.0 2.0 0.00 0.00 0.00 39 1018.3
20260906062557 82 330 0.0 2.0 0.00 0.00 0.00 39 1018.2
20260906062055 82 20 0.0 3.0 0.00 0.00 0.00 40 1018.1
20260906061555 81 360 0.0 3.0 0.00 0.00 0.00 40 1018.1
20260906061053 80 5 0.0 3.0 0.00 0.00 0.00 40 1018.1
20260906060552 80 25 0.0 2.0 0.00 0.00 0.00 41 1018.0
20260906060051 80 38 0.0 4.0 0.00 0.00 0.00 42 1018.0
20260906055549 79 61 1.0 4.0 0.00 0.00 0.00 42 1018.0
20260906055048 78 44 1.0 4.0 0.00 0.00 0.00 45 1018.0
20260906054547 77 36 0.0 4.0 0.00 0.00 0.00 47 1017.9
20260906054046 76 19 1.0 4.0 0.00 0.00 0.00 48 1017.9
20260906053544 75 26 1.0 4.0 0.00 0.00 0.00 49 1017.9
20260906053058 75 5 2.0 5.0 0.00 0.00 0.00 50 1017.8
20260906052548 74 21 3.0 5.0 0.00 0.00 0.00 51 1017.9
20260906052041 74 32 3.0 5.0 0.00 0.00 0.00 51 1017.9
20260906051540 75 19 2.0 5.0 0.00 0.00 0.00 50 1018.0
20260906051037 74 74 2.0 6.0 0.00 0.00 0.00 50 1017.9
20260906050535 73 34 2.0 6.0 0.00 0.00 0.00 51 1018.0
20260906050046 73 36 2.0 6.0 0.00 0.00 0.00 51 1017.9
20260906045535 72 22 2.0 6.0 0.00 0.00 0.00 51 1017.9
20260906045032 72 47 2.0 5.0 0.00 0.00 0.00 51 1017.8
20260906044532 72 43 3.0 5.0 0.00 0.00 0.00 52 1017.9
20260906044032 72 104 0.0 6.0 0.00 0.00 0.00 51 1017.8
20260906043529 72 84 1.0 6.0 0.00 0.00 0.00 50 1017.8
20260906043031 72 55 1.0 5.0 0.00 0.00 0.00 50 1017.7
20260906042525 72 71 2.0 8.0 0.00 0.00 0.00 50 1017.6
20260906042024 72 48 2.0 10.0 0.00 0.00 0.00 50 1017.6
20260906041524 71 67 6.0 10.0 0.00 0.00 0.00 51 1017.6
20260906041024 70 47 6.0 9.0 0.00 0.00 0.00 51 1017.5
20260906040523 70 49 6.0 9.0 0.00 0.00 0.00 52 1017.5
20260906040023 69 59 5.0 9.0 0.00 0.00 0.00 52 1017.5
20260906035522 69 53 4.0 7.0 0.00 0.00 0.00 53 1017.5
20260906035022 69 38 4.0 8.0 0.00 0.00 0.00 53 1017.4
20260906034522 69 360 4.0 10.0 0.00 0.00 0.00 53 1017.5
20260906034020 70 14 3.0 10.0 0.00 0.00 0.00 52 1017.5
20260906033521 71 62 3.0 9.0 0.00 0.00 0.00 50 1017.4
20260906033024 71 89 6.0 9.0 0.00 0.00 0.00 51 1017.4
20260906032520 70 59 5.0 8.0 0.00 0.00 0.00 52 1017.4
20260906032021 71 9 3.0 8.0 0.00 0.00 0.00 51 1017.3
20260906031520 72 68 2.0 5.0 0.00 0.00 0.00 50 1017.3
20260906031019 71 86 3.0 5.0 0.00 0.00 0.00 50 1017.4
20260906030520 71 61 2.0 6.0 0.00 0.00 0.00 50 1017.3
20260906030022 70 50 4.0 8.0 0.00 0.00 0.00 51 1017.3
20260906025519 70 71 4.0 8.0 0.00 0.00 0.00 52 1017.3
20260906025019 70 65 2.0 7.0 0.00 0.00 0.00 52 1017.2
20260906024518 70 34 2.0 8.0 0.00 0.00 0.00 52 1017.1
20260906024018 70 59 3.0 6.0 0.00 0.00 0.00 52 1017.1
20260906023518 70 38 3.0 9.0 0.00 0.00 0.00 52 1017.1
20260906023017 70 59 4.0 9.0 0.00 0.00 0.00 52 1017.0
20260906022516 71 26 4.0 9.0 0.00 0.00 0.00 50 1017.0
20260906022015 72 88 4.0 9.0 0.00 0.00 0.00 49 1017.1
20260906021515 71 86 4.0 9.0 0.00 0.00 0.00 50 1017.1
20260906021020 71 28 2.0 9.0 0.00 0.00 0.00 50 1017.2
20260906020515 71 61 5.0 9.0 0.00 0.00 0.00 50 1017.1
20260906020015 71 55 4.0 9.0 0.00 0.00 0.00 50 1017.1
20260906015514 71 40 5.0 9.0 0.00 0.00 0.00 50 1017.1
20260906015014 70 53 3.0 9.0 0.00 0.00 0.00 52 1017.0
20260906014513 69 55 6.0 9.0 0.00 0.00 0.00 52 1017.2
20260906014013 70 24 4.0 5.0 0.00 0.00 0.00 52 1017.1
20260906013511 71 36 2.0 4.0 0.00 0.00 0.00 51 1017.0
20260906013011 72 30 3.0 6.0 0.00 0.00 0.00 50 1017.2
20260906012510 73 96 2.0 7.0 0.00 0.00 0.00 48 1017.1
20260906012010 72 94 4.0 7.0 0.00 0.00 0.00 49 1017.1
20260906011510 72 88 1.0 4.0 0.00 0.00 0.00 49 1017.3
20260906011010 72 88 0.0 5.0 0.00 0.00 0.00 48 1017.3
20260906010509 71 82 3.0 6.0 0.00 0.00 0.00 49 1017.2
20260906010008 71 62 4.0 6.0 0.00 0.00 0.00 50 1017.2
20260906005508 71 34 4.0 6.0 0.00 0.00 0.00 50 1017.3
20260906005008 70 35 4.0 9.0 0.00 0.00 0.00 50 1017.1
20260906004508 70 45 6.0 9.0 0.00 0.00 0.00 51 1017.2
20260906004007 70 35 6.0 9.0 0.00 0.00 0.00 50 1017.2
20260906003506 71 17 4.0 6.0 0.00 0.00 0.00 50 1017.0
20260906003005 71 49 3.0 8.0 0.00 0.00 0.00 49 1017.1
20260906002503 72 5 3.0 5.0 0.00 0.00 0.00 48 1017.1
20260906002003 73 51 3.0 5.0 0.00 0.00 0.00 47 1017.1
20260906001507 73 84 3.0 5.0 0.00 0.00 0.00 48 1017.1
20260906001002 73 10 2.0 7.0 0.00 0.00 0.00 48 1017.1
20260906000601 73 105 4.0 9.0 0.00 0.00 0.00 48 1017.0
20260906000105 72 46 6.0 9.0 0.00 0.00 0.00 49 1017.1
20260905235559 72 36 3.0 5.0 0.00 0.00 0.00 49 1017.1
20260905235059 72 69 3.0 6.0 0.00 0.00 0.00 48 1017.1
20260905234558 74 11 4.0 9.0 0.00 0.00 0.00 47 1017.2
20260905234057 74 32 4.0 8.0 0.00 0.00 0.00 45 1017.2
20260905233557 74 82 5.0 9.0 0.00 0.00 0.00 46 1017.3
20260905233057 73 66 5.0 9.0 0.00 0.00 0.00 46 1017.4
20260905232555 73 62 3.0 6.0 0.00 0.00 0.00 46 1017.4
20260905232055 73 46 3.0 6.0 0.00 0.00 0.00 47 1017.6
20260905231554 73 25 4.0 6.0 0.00 0.00 0.00 47 1017.6
20260905231054 74 91 3.0 6.0 0.00 0.00 0.00 46 1017.5
20260905230553 74 24 3.0 4.0 0.00 0.00 0.00 46 1017.6
20260905230054 74 56 2.0 7.0 0.00 0.00 0.00 46 1017.7
20260905225553 73 59 3.0 9.0 0.00 0.00 0.00 46 1017.7
20260905225052 73 30 5.0 9.0 0.00 0.00 0.00 46 1017.7
20260905224554 73 35 3.0 5.0 0.00 0.00 0.00 46 1017.7
20260905224050 73 26 2.0 4.0 0.00 0.00 0.00 47 1017.7
20260905223552 74 33 2.0 4.0 0.00 0.00 0.00 47 1017.7
20260905223050 74 20 2.0 4.0 0.00 0.00 0.00 47 1017.7
20260905222549 74 13 2.0 3.0 0.00 0.00 0.00 46 1017.8
20260905222048 75 90 0.0 2.0 0.00 0.00 0.00 45 1017.8
20260905221547 76 92 0.0 3.0 0.00 0.00 0.00 44 1017.7
20260905221047 76 91 0.0 4.0 0.00 0.00 0.00 43 1017.7
20260905220547 76 91 2.0 5.0 0.00 0.00 0.00 43 1017.6
20260905220047 76 70 3.0 5.0 0.00 0.00 0.00 43 1017.6
20260905215547 76 69 0.0 5.0 0.00 0.00 0.00 43 1017.6
20260905215046 75 50 2.0 5.0 0.00 0.00 0.00 43 1017.7
20260905214545 75 30 2.0 5.0 0.00 0.00 0.00 44 1017.7
20260905214045 75 24 4.0 10.0 0.00 0.00 0.00 45 1017.7
20260905213546 74 17 4.0 10.0 0.00 0.00 0.00 45 1017.8
20260905213043 75 13 3.0 4.0 0.00 0.00 0.00 44 1017.8
20260905212542 76 42 1.0 3.0 0.00 0.00 0.00 44 1017.8
20260905212040 77 46 1.0 4.0 0.00 0.00 0.00 43 1017.8
20260905211549 77 5 2.0 4.0 0.00 0.00 0.00 42 1017.8
20260905211038 78 105 1.0 6.0 0.00 0.00 0.00 41 1017.8
20260905210539 77 126 2.0 8.0 0.00 0.00 0.00 42 1017.9
20260905210039 77 321 1.0 7.0 0.00 0.00 0.00 42 1017.9
20260905205536 77 68 3.0 5.0 0.00 0.00 0.00 42 1018.0
20260905205036 77 61 3.0 9.0 0.00 0.00 0.00 42 1017.9
20260905204538 77 57 3.0 9.0 0.00 0.00 0.00 42 1018.0
20260905204036 77 51 2.0 3.0 0.00 0.00 0.00 42 1018.0
20260905203535 77 31 2.0 3.0 0.00 0.00 0.00 43 1017.9
20260905203036 78 336 1.0 3.0 0.00 0.00 0.00 42 1017.9
20260905202535 78 26 0.0 3.0 0.00 0.00 0.00 42 1017.9
20260905202035 78 27 0.0 5.0 0.00 0.00 0.00 41 1017.9
20260905201535 79 17 2.0 5.0 0.00 0.00 0.00 41 1017.9
20260905201035 79 61 2.0 4.0 0.00 0.00 0.00 40 1017.9
20260905200534 79 52 1.0 4.0 0.00 0.00 0.00 40 1017.9
20260905200039 79 360 0.0 3.0 0.00 0.00 0.00 40 1017.9
20260905195534 79 355 1.0 3.0 0.00 0.00 0.00 39 1018.0
20260905195034 79 355 1.0 3.0 0.00 0.00 0.00 40 1018.1
20260905194533 79 355 0.0 2.0 0.00 0.00 0.00 40 1018.0
20260905194033 79 355 0.0 4.0 0.00 0.00 0.00 40 1018.1
20260905193535 80 360 1.0 4.0 0.00 0.00 0.00 40 1018.1
20260905193031 80 28 0.0 4.0 0.00 0.00 0.00 40 1018.1
20260905192531 80 31 1.0 6.0 0.00 0.00 0.00 39 1018.1
20260905192030 81 11 3.0 7.0 0.00 0.00 0.00 39 1018.1
20260905191531 81 38 2.0 3.0 0.00 0.00 0.00 39 1018.1
20260905191031 81 117 1.0 3.0 0.00 0.00 0.00 38 1018.0
20260905190530 81 118 1.0 4.0 0.00 0.00 0.00 38 1018.0
20260905190030 81 121 1.0 6.0 0.00 0.00 0.00 38 1018.0
20260905185530 81 111 2.0 6.0 0.00 0.00 0.00 38 1018.0